Regional Weather Roundup
Issued by NWS

Home | Current Version | Previous Version | Text Only | Print | Product List | Glossary On
Versions: 1 2 3 4 5 6 7 8 9 10 11 12 13 14 15 16 17 18 19 20 21 22 23 24 25 26 27 28 29 30 31 32 33 34 35 36 37 38 39 40 41 42 43 44 45 46 47 48 49 50
226
ASUS43 KMPX 092110
RWRMN
WEATHER ROUNDUP FOR MINNESOTA
NATIONAL WEATHER SERVICE TWIN CITIES/CHANHASSEN MN
300 PM CST TUE FEB 09 2016


NOTE: "FAIR" INDICATES FEW OR NO CLOUDS BELOW 12,000 FEET WITH NO
SIGNIFICANT WEATHER AND/OR OBSTRUCTIONS TO VISIBILITY. N/A MEANS
CURRENT SKY AND/OR WEATHER CONDITIONS ARE NOT AVAILABLE.

MNZ060>063-068>070-092200-
   Twin Cities Metro

CITY           SKY/WX    TMP DP  RH WIND       PRES   REMARKS
TWIN CITIES    SUNNY     16  -1  47 NW21G28   30.10R WCI  -1
ST PAUL        SUNNY     16  -1  47 N24G30    30.10R WCI  -2
CRYSTAL        SUNNY     16   0  49 NW16G25   30.09S WCI   1
BLAINE         SUNNY     18   1  49 N21G28    30.08S WCI   1
LAKEVILLE      SUNNY     14   1  57 NW17G24   30.07R WCI  -3
EDEN PRAIRIE   SUNNY     16   0  49 N15G26    30.09R WCI   1
SOUTH ST PAUL  SUNNY     17  -1  44 NW17G25   30.08R WCI   2
LAKE ELMO      FAIR      18   1  49 NW14G22   30.07S WCI   4
$$
MNZ001>005-007-008-013>017-022>024-027-028-092200-
   Northwest Minnesota

CITY           SKY/WX    TMP DP  RH WIND       PRES   REMARKS
BEMIDJI        SUNNY      7  -1  68 W12       30.15S WCI  -8
HALLOCK        SUNNY      7  -2  66 NW13      30.29S WCI  -9
ROSEAU         SUNNY      7   0  72 W10       30.21F WCI  -8
WARROAD        SUNNY      9   0  66 W8        30.20F WCI  -4
THIEF RVR FALL SUNNY      9  -2  61 NW12      30.23S WCI  -6
CROOKSTON      SUNNY      9   3  78 N15       30.27S WCI  -8
FOSSTON        SUNNY     12   0  57 NW9       30.20F WCI   0
DETROIT LAKES  SUNNY     10   3  72 N17       30.20S WCI  -7
MOORHEAD       CLOUDY    12   3  67 N14       30.25F WCI  -3
PARK RAPIDS    SUNNY     14  -1  51 NW15      30.12F WCI  -1
MAHNOMEN       FAIR       9   1  70 N12       30.20F WCI  -6
$$
MNZ006-009>011-018-025>026-092200-
   North Central Minnesota

CITY           SKY/WX    TMP DP  RH WIND       PRES   REMARKS
BAUDETTE       SUNNY      5  -4  66 NW13      30.17F WCI -12
FLAG ISLAND    SUNNY      7  -2  66 NW16      30.19F WCI -11
INTL FALLS     SUNNY      6  -6  57 N18       30.14R WCI -13
WASKISH        SUNNY      9  -2  61 NW8       30.17S WCI  -4
LONGVILLE      SUNNY      9  -4  56 W10G17    30.13R WCI  -6
GRAND RAPIDS   SUNNY      9  -4  56 NW18      30.09R WCI -10
CRANE LAKE     MOSUNNY    3  -6  66 NW9G17    30.12R WCI -11
ORR            SUNNY      7  -8  51 NW8G16    30.07R WCI  -6
COOK           SUNNY      7  -6  56 NW12G20   30.08R WCI  -9
WALKER         FAIR       9  -3  59 NW12      30.14S WCI  -6
$$
MNZ012-019>021-037-092200-
   Northeast Minnesota

CITY           SKY/WX    TMP DP  RH WIND       PRES   REMARKS
DULUTH         SUNNY      9  -5  53 N21G26    29.99S WCI -11
ELY            PTSUNNY    5  -2  72 NW10G20   30.03R WCI -10
HIBBING        SUNNY      6  -3  66 NW20      30.06S WCI -14
EVELETH        SUNNY      9  -4  56 NW16G23   30.06R WCI  -9
DULUTH HARBOR  SUNNY     16  -2  45 NW18G24   30.08S WCI  -1
TWO HARBORS    SUNNY     14   0  52 NW8G21    30.00R WCI   3
SILVER BAY     SUNNY     10  -2  56 NW8G20    29.99S WCI  -1
GRAND MARAIS     N/A     10  -3  55 VRB6      30.02S WCI   0
G MARAIS ARPRT MOSUNNY    1  -9  60 NW15G29   29.90R WCI -18
$$
MNZ029>031-032-039>041-046>048-054>057-064-092200-
   West Central Minnesota

CITY           SKY/WX    TMP DP  RH WIND       PRES   REMARKS
FERGUS FALLS   CLOUDY    12   5  73 N17G23    30.25R WCI  -5
WHEATON        CLOUDY    18  10  73 NW14      30.25F WCI   4
MORRIS         CLOUDY    16   9  73 NW21      30.20R WCI  -2
ALEXANDRIA     SUNNY     15   0  51 N20       30.15S WCI  -2
ELBOW LAKE     CLOUDY    13   5  71 W17       30.20R HAZE    WCI  -4
WADENA         SUNNY     12   1  62 NW13      30.14S WCI  -3
GLENWOOD       SUNNY     16   3  57 NW14      30.15S WCI   1
APPLETON       CLOUDY    18   9  68 NW18G24   30.22R WCI   2
BENSON         CLOUDY    18   9  68 N12       30.19S WCI   5
ORTONVILLE     CLOUDY    18   7  62 NW15      30.22S WCI   3
MADISON        PTSUNNY   19   9  63 N18       30.23R WCI   4
WILLMAR        FAIR      19   9  63 NW18      30.17S WCI   4
$$
MNZ033>034-036-042>043-049>051-058-059-092200-
   Central Minnesota

CITY           SKY/WX    TMP DP  RH WIND       PRES   REMARKS
ST CLOUD       SUNNY     15   0  51 NW17G28   30.12F WCI  -1
SAUK CENTRE    FAIR      14   1  56 NW14      30.15S WCI   0
PAYNESVILLE    SUNNY     15   3  58 NW13G18   30.15F WCI   1
AITKIN         SUNNY     14  -8  37 NW13G20   30.09S WCI   0
PINE RIVER     SUNNY     10  -2  56 NW13      30.16S WCI  -5
BRAINERD       SUNNY     11  -3  53 NW17      30.13R WCI  -6
STAPLES        SUNNY     12   0  57 N14       30.14R WCI  -3
LONG PRAIRIE   FAIR      14   1  57 NW14      30.14S WCI  -1
LITTLE FALLS   SUNNY     14  -4  44 N9        30.14S WCI   2
LITCHFIELD     SUNNY     16   3  57 NW20G26   30.14S WCI  -1
BUFFALO        SUNNY     17   2  52 NW13G20   30.13S WCI   3
MAPLE LAKE     SUNNY     17   3  54 NW14G24   30.14R WCI   2
$$
MNZ037-044-045-052-053-092200-
   East Central Minnesota

CITY           SKY/WX    TMP DP  RH WIND       PRES   REMARKS
PRINCETON      SUNNY     16   0  48 NW16G22   30.10S WCI   0
MORA           SUNNY     14   0  52 NW17      30.11R WCI  -3
CAMBRIDGE      SUNNY     16   1  53 NW17G24   30.08S WCI   0
RUSH CITY      SUNNY     16  -2  46 N10G17    30.08S WCI   3
MOOSE LAKE     SUNNY     14  -4  44 NW14G21   30.05S WCI  -1
HINCKLEY       FAIR      16   0  48 NW14G21   30.07S WCI   1
CLOQUET        SUNNY     10  -4  52 NW14G23   30.03S WCI  -5
MCGREGOR       SUNNY     12  -2  52 N17       30.09R WCI  -5
$$
MNZ071>073-080-081-089-090-097-098-092200-
   Southwest Minnesota

CITY           SKY/WX    TMP DP  RH WIND       PRES   REMARKS
MONTEVIDEO     CLOUDY    18  10  73 N17       30.21S WCI   2
GRANITE FALLS  CLOUDY    19  10  69 NW15G24   30.21S WCI   4
CANBY          CLOUDY    22  13  69 W14G23    30.23R WCI   9
MARSHALL       CLOUDY    17   9  70 NW15      30.19R WCI   2
REDWOOD FALLS  MOSUNNY   18   6  59 NW16G25   30.17R WCI   3
OLIVIA         SUNNY     21  10  63 NW22G28   30.16R WCI   5
PIPESTONE      SUNNY     21   5  49 N10G17    30.16S WCI  10
WINDOM         SUNNY     16   9  73 NW21      30.14R WCI  -2
WORTHINGTON    CLOUDY    16   5  62 NW20G26   30.16R WCI  -1
JACKSON        SUNNY     18   7  62 NW25      30.13R WCI  -1
TRACY          MOSUNNY   18  10  70 NW22G29   30.17S WCI   0
SLAYTON        CLOUDY    17  10  75 NW21      30.16R WCI  -1
$$
MNZ065>067-074>077-082>085-091>093-092200-
   South Central Minnesota

CITY           SKY/WX    TMP DP  RH WIND       PRES   REMARKS
MANKATO        SUNNY    N/A N/A N/A NW24      30.10S
NEW ULM        SUNNY     16   7  67 NW20G26   30.13R WCI  -1
ST JAMES       SUNNY     18   9  68 NW26      30.15S WCI  -1
FAIRMONT       MOSUNNY   18   5  57 NW21G31   30.11R WCI   1
GLENCOE        SUNNY     17   6  62 NW20      30.12S WCI   0
FARIBAULT      SUNNY     16   1  53 NW21G26   30.07S WCI  -2
OWATONNA       SUNNY     14   3  62 NW21      30.06R WCI  -4
WASECA         SUNNY     18   7  62 NW21      30.09S WCI   1
ALBERT LEA     SUNNY     14   3  62 NW13G22   30.05S WCI   0
$$
MNZ078>079-086>088-094>096-092200-
   Southeast Minnesota

CITY           SKY/WX    TMP DP  RH WIND       PRES   REMARKS
ROCHESTER      SUNNY     13   1  59 NW22      30.00R WCI  -6
RED WING       SUNNY     18  -2  41 NW14G22   30.05R WCI   4
STANTON        SUNNY     17   3  54 NW16      30.06R WCI   1
DODGE CENTER   SUNNY     14   1  57 NW17      30.01R WCI  -3
WINONA         SUNNY     18   3  53 NW20G25   30.03R WCI   1
AUSTIN         SUNNY     12   3  67 NW20G32   30.03R WCI  -6
PRESTON        SUNNY     12   1  62 NW17      29.99S WCI  -5
$$
ABBREVIATIONS USED IN REMARKS
   TC - TEMPERATURES IN CELSIUS
  WCI - WIND CHILL INDEX
   HX - HEAT INDEX
  VSB - VISIBILITY
$$




USA.gov is the U.S. government's official web portal to all federal, state and local government web resources and services.